Location: Hiram
(41.3130°N, 81.1440°W)
Time: 13:58:08
(UTC-04:00)

Iridium 62 - Visible Passes

Search period start: 28 April 2017 00:00
Search period end: 08 May 2017 00:00
Orbit: 776 x 779 km, 86.4° (Epoch: 26 April)

Date Brightness Start Highest point End Pass type
(mag) Time Alt. Az. Time Alt. Az. Time Alt. Az.
28 Apr 7.7 02:25:10 22° E 02:25:18 22° E 02:29:16 10° NNE visible
28 Apr 6.3 04:05:39 42° W 04:05:42 42° W 04:10:40 10° NNW visible
29 Apr 8.3 01:51:48 12° E 01:52:09 12° ENE 01:54:04 10° NE visible
29 Apr 5.7 03:32:17 76° WNW 03:32:17 76° WNW 03:37:21 10° N visible
30 Apr 6.2 02:58:54 57° ENE 02:58:54 57° ENE 03:03:44 10° N visible
30 Apr 7.5 04:39:22 16° W 04:39:45 16° WNW 04:43:00 10° NW visible
01 May 7.2 02:25:30 31° ENE 02:25:30 31° ENE 02:29:49 10° NNE visible
01 May 6.8 04:05:59 29° WNW 04:05:59 29° WNW 04:10:28 10° NNW visible
02 May 7.9 01:52:06 18° ENE 01:52:06 18° ENE 01:55:23 10° NE visible
02 May 6.1 03:32:35 52° WNW 03:32:35 52° WNW 03:37:21 10° N visible
03 May 5.9 02:59:10 73° NNE 02:59:10 73° NNE 03:03:55 10° N visible
03 May 7.9 04:39:38 11° WNW 04:40:05 11° WNW 04:41:38 10° NW visible
04 May 6.7 02:25:45 44° ENE 02:25:45 44° ENE 02:30:12 10° NNE visible
04 May 7.3 04:06:14 21° WNW 04:06:14 21° WNW 04:10:03 10° NNW visible
05 May 7.5 01:52:20 25° ENE 01:52:20 25° ENE 01:56:07 10° NNE visible
05 May 6.6 03:32:48 36° WNW 03:32:48 36° WNW 03:37:14 10° NNW visible
06 May 8.1 01:18:54 14° ENE 01:18:54 14° ENE 01:21:16 10° NE visible
06 May 6.0 02:59:22 62° NW 02:59:22 62° NW 03:04:00 10° N visible
07 May 6.2 02:25:56 59° NE 02:25:56 59° NE 02:30:27 10° N visible
07 May 7.7 04:06:24 14° WNW 04:06:30 14° WNW 04:09:19 10° NW visible
